This is the latest recevied weather packets stored in our database for station/object K4OBI. If no packets are shown the sender has not sent any weather packets the latest 10 day(s).
| Time | Temp. | Humidity | Pressure | Rain* | Wind** | Luminosity | Snow |
|---|---|---|---|---|---|---|---|
| 1777655161 | 17.78° C | 52% | 1017.5 hPa | 0 mm | - | - | - |
| 1777655101 | 17.78° C | 51% | 1017.5 hPa | 0 mm | - | - | - |
| 1777655041 | 17.78° C | 52% | 1017.4 hPa | 0 mm | - | - | - |
| 1777654982 | 17.78° C | 49% | 1017.5 hPa | 0 mm | - | - | - |
| 1777654920 | 17.78° C | 53% | 1017.5 hPa | 0 mm | - | - | - |
| 1777654856 | 17.78° C | 55% | 1017.5 hPa | 0 mm | - | - | - |
| 1777654795 | 17.78° C | 55% | 1017.5 hPa | 0 mm | - | - | - |
| 1777654735 | 17.78° C | 51% | 1017.5 hPa | 0 mm | - | - | - |
| 1777654677 | 17.78° C | 53% | 1017.5 hPa | 0 mm | - | - | - |
| 1777654614 | 17.78° C | 53% | 1017.5 hPa | 0 mm | - | - | - |
| 1777654553 | 17.78° C | 52% | 1017.5 hPa | 0 mm | - | - | - |
| 1777654492 | 17.78° C | 51% | 1017.6 hPa | 0 mm | - | - | - |
| 1777654429 | 17.78° C | 52% | 1017.6 hPa | 0 mm | - | - | - |
| 1777654369 | 17.22° C | 52% | 1017.7 hPa | 0 mm | - | - | - |
| 1777654308 | 17.22° C | 54% | 1017.7 hPa | 0 mm | - | - | - |
| 1777654243 | 17.22° C | 52% | 1017.6 hPa | 0 mm | - | - | - |
| 1777654181 | 17.22° C | 51% | 1017.7 hPa | 0 mm | - | - | - |
| 1777654122 | 17.22° C | 50% | 1017.8 hPa | 0 mm | - | - | - |
| 1777654061 | 17.22° C | 51% | 1017.7 hPa | 0 mm | - | - | - |
| 1777654002 | 17.22° C | 51% | 1017.7 hPa | 0 mm | - | - | - |
| 1777653938 | 17.78° C | 50% | 1017.9 hPa | 0 mm | - | - | - |
| 1777653879 | 17.78° C | 50% | 1017.8 hPa | 0 mm | - | - | - |
| 1777653817 | 17.78° C | 50% | 1018 hPa | 0 mm | - | - | - |
| 1777653759 | 17.78° C | 53% | 1017.9 hPa | 0 mm | - | - | - |
| 1777653696 | 17.78° C | 54% | 1017.8 hPa | 0 mm | - | - | - |
* Rain latest hour (hover to see other rain measurements)
** Current wind speed in m/s (hover to see current wind gust speed)